Flag for Switzerland Weather past 2 weeks in Illnau-Effretikon, Zurich, Switzerland

Now
49 °F

Cool.


Feels Like: 43 °F
Forecast: 46 / 50 °F
Wind: 17 mph from Southwest

Location: Zurich Town / Ville.

Current Time: Mar 29, 2015 at 6:20:03 PM

Latest Report: Mar 29, 2015 at 5:00 PM


Visibility: N/A

Pressure: 29.88 "Hg

Humidity: 76%

Dew point: 42 °F

Location of Illnau-EffretikonLocation

Historic Weather in Illnau-Effretikon — Graph

°F

Illnau-Effretikon temperature yesterday

Maximum temperature yesterday: 56 °F (at 3:00 PM)
Minimum temperature yesterday: 36 °F (at 7:00 AM)
Average temperature yesterday: 45 °F

Past Weeks' High & Low Weather Summary

 TemperatureHumidityPressure
High62 °F (Mar 18, 2:40 PM)97% (Mar 22, 1:00 AM)30.31 "Hg (Mar 22, 1:00 AM)
Low32 °F (Mar 15, 3:00 AM)34% (Mar 24, 5:00 PM)29.59 "Hg (Mar 25, 2:00 PM)
Average45 °F70%30.06 "Hg
* Reported Mar 14 4:00 PM — Mar 29 5:00 PM, Illnau-Effretikon, Weather by CustomWeather, © 2015

Note: Actual official high and low records may vary slightly from our data, if they occured in-between our weather recording intervals... More about our weather records

Advertising

Illnau-Effretikon weather history for previous 24 hours

 ConditionsComfort  
Time TempWeatherWind HumidityBarometerVisibility
5:00 PM
Sun, Mar 29
49 °FCool.17 mph76%29.88 "HgN/A
4:00 PM48 °FCool.18 mph83%29.91 "HgN/A
3:00 PM49 °FCool.20 mph78%29.91 "HgN/A
2:00 PM48 °FCool.17 mph80%29.93 "HgN/A
1:00 PM51 °FCool.17 mph69%29.90 "HgN/A
12:00 PM52 °FCool.20 mph66%29.93 "HgN/A
11:00 AM51 °FCool.17 mph67%29.96 "HgN/A
10:00 AM50 °FCool.17 mph72%29.98 "HgN/A
9:00 AM47 °FCool.13 mph78%29.99 "HgN/A
8:00 AM48 °FCool.13 mph73%30.00 "HgN/A
7:00 AM47 °FCool.15 mph77%30.01 "HgN/A
6:00 AM47 °FCool.10 mph82%30.04 "HgN/A
5:00 AM47 °FCool.15 mph84%30.06 "HgN/A
4:00 AM45 °FCool.10 mph85%30.09 "HgN/A
3:00 AM44 °FQuite cool.3 mph88%30.10 "HgN/A
1:00 AM45 °FQuite cool.3 mph86%30.11 "HgN/A
12:00 AM44 °FQuite cool.3 mph83%30.12 "HgN/A
11:00 PM
Sat, Mar 28
44 °FQuite cool.5 mph89%30.14 "HgN/A
9:00 PM47 °FCool.10 mph68%30.15 "HgN/A
8:00 PM47 °FCool.7 mph61%30.14 "HgN/A
7:00 PM47 °FOvercast.10 mph64%30.14 "HgN/A
6:00 PM48 °FCool.12 mph58%30.13 "HgN/A
Weather by CustomWeather, © 2015

See weather overviewHow to use our weather pages